Location: Newark
(7.0858°N, 171.3717°E)
Time: 09:34:24
(UTC+00:00)

S-56A Canister/Altair - Pass Details

Date: 26 November 2020
Orbit: 633 x 2499 km, 38.9° (Epoch: 27 January)

Event Time Altitude Azimuth Distance (km) Brightness Sun altitude
Rises 09:04:11 0° 278° (W) 5,543 12.6 -40.3°
Reaches altitude 10° 09:11:13 10° 303° (WNW) 4,065 11.5 -41.9°
Maximum altitude 09:15:12 13° 325° (NW) 3,546 11.0 -42.8°
Enters shadow 09:16:18 12° 333° (NNW) 3,476 10.8 -43.1°
Drops below altitude 10° 09:18:43 10° 349° (N) 3,458 - -43.6°
Sets 09:23:36 0° 18° (NNE) 3,998 - -44.7°
